Regional Weather Roundup
Issued by NWS

Home | Current Version | Previous Version | Graphics & Text | Print | Product List | Glossary Off
Versions: 1 2 3 4 5 6 7 8 9 10 11 12 13 14 15 16 17 18 19 20 21 22 23 24 25 26 27 28 29 30 31 32 33 34 35 36 37 38 39 40 41 42 43 44 45 46 47 48 49 50

417
ASUS43 KFSD 180702
RWRSD

WEATHER ROUNDUP FOR SOUTH DAKOTA
NATIONAL WEATHER SERVICE SIOUX FALLS SD
100 AM CST WED JAN 18 2017

NOTE: "FAIR" INDICATES FEW OR NO CLOUDS BELOW 12,000 FEET WITH NO
SIGNIFICANT WEATHER AND/OR OBSTRUCTIONS TO VISIBILITY.


SDZ001>005-009-010-012>017-180800-
NORTHWEST AND NORTH CENTRAL SOUTH DAKOTA

CITY           SKY/WX    TMP DP  RH WIND       PRES   REMARKS
BUFFALO          N/A     34  21  59 W9        29.75F WCI  27
FAITH            N/A     30  19  63 W3        29.82S
MOBRIDGE       CLOUDY    17  10  74 SE7       29.79S WCI   8
$$

SDZ012>016-024>037-041>051-057-063-072>074-180800-
SOUTHWEST AND SOUTH CENTRAL SOUTH DAKOTA

CITY           SKY/WX    TMP DP  RH WIND       PRES   REMARKS
RAPID CTY ARPT CLOUDY    26  16  65 W6        29.85F WCI  19
PIERRE         CLOUDY    16  13  88 S6        29.86S WCI   7
CUSTER         CLOUDY    31  14  49 W8        29.90S WCI  23
ELLSWORTH AFB  CLOUDY    36  19  51 SW8       29.85S
PHILIP         CLOUDY    26  18  71 W9        29.86F WCI  17
PINE RIDGE     CLOUDY    18  12  77 W5        29.90F WCI  11
SPEARFISH      FAIR      39  19  45 CALM      29.86S
WINNER         FAIR      32  21  64 SW10      29.87F WCI  24
$$

SDZ004>011-016>023-039-040-180800-
NORTHEAST SOUTH DAKOTA

CITY           SKY/WX    TMP DP  RH WIND       PRES   REMARKS
ABERDEEN       CLOUDY    15  11  83 S9        29.85S WCI   3
WATERTOWN      CLOUDY    20  19  96 S7        29.86S WCI  11
BROOKINGS      CLOUDY    26  24  92 SW9       29.88S WCI  17
SISSETON         N/A     36  27  69 W12G20    29.79F
$$

SDZ017-020-022-023-036>040-048>070-180800-
SOUTHEAST SOUTH DAKOTA

CITY           SKY/WX    TMP DP  RH WIND       PRES   REMARKS
SIOUX FALLS    CLOUDY    30  29  96 SW9       29.94F WCI  22
HURON          CLOUDY    22  22 100 S7        29.88S WCI  13
CHAMBERLAIN    CLOUDY    20  18  91 CALM      29.88F
MITCHELL       CLOUDY    24  22  91 S7        29.90F WCI  16
YANKTON        CLOUDY    30  27  86 S6        29.96F WCI  24
$$

ABBREVIATIONS USED IN REMARKS
   TC - TEMPERATURE IN CELSIUS
  WCI - WIND CHILL INDEX
   HX - HEAT INDEX
  VSB - VISIBILITY





USA.gov is the U.S. government's official web portal to all federal, state and local government web resources and services.